When you browse on this site, cookies collect data to enhance your experience and personalize the content and advertising you see.
Visit our Privacy Policy to learn more. By continuing to use the site, you agree to this use of cookies and data.
  • In Portugal
  • List of Countries
  • For 7 days
  • Water Temperature
  • Satellite Maps
  • Weather Map
  • Weather Widgets
  • user-avatar
    Login

    Hourly Weather Luhovka

    Today, 26 June, Wednesday

    Time Temperature Precipitation Wind Pressure Humidity
    00:00 +13°C° 0 mm 2 mps 755 mmHg 85%
    01:00 +13°C° 0 mm 2 mps 755 mmHg 87%
    02:00 +12°C° 0 mm 2 mps 755 mmHg 89%
    03:00 +11°C° 0 mm 3 mps 755 mmHg 92%
    04:00 +11°C° 0 mm 3 mps 755 mmHg 89%
    05:00 +12°C° 0 mm 3 mps 755 mmHg 86%
    06:00 +13°C° 0 mm 3 mps 755 mmHg 84%
    07:00 +14°C° 0 mm 3 mps 755 mmHg 77%
    08:00 +15°C° 0 mm 4 mps 755 mmHg 70%
    09:00 +18°C° 0 mm 4 mps 755 mmHg 63%
    10:00 +18°C° 0 mm 4 mps 755 mmHg 60%
    11:00 +19°C° 0 mm 4 mps 755 mmHg 57%
    12:00 +20°C° 0 mm 4 mps 754 mmHg 54%
    13:00 +20°C° 0 mm 4 mps 754 mmHg 54%
    14:00 +20°C° 0 mm 4 mps 754 mmHg 53%
    15:00 +20°C° 0 mm 3 mps 754 mmHg 53%
    16:00 +20°C° 0 mm 3 mps 753 mmHg 56%
    17:00 +19°C° 0 mm 2 mps 753 mmHg 59%
    18:00 +20°C° 0 mm 1 mps 752 mmHg 62%
    19:00 +19°C° 0 mm 1 mps 752 mmHg 65%
    20:00 +16°C° 0 mm 2 mps 751 mmHg 68%
    21:00 +15°C° 0 mm 2 mps 751 mmHg 71%
    22:00 +14°C° 0.5 mm 1 mps 750 mmHg 77%
    23:00 +14°C° 0.5 mm 1 mps 749 mmHg 84%

    Tomorrow, 27 June, Thursday

    Time Temperature Precipitation Wind Pressure Humidity
    00:00 +12°C° 0.5 mm 0 mps 749 mmHg 90%
    01:00 +13°C° 2.5 mm 1 mps 748 mmHg 92%
    02:00 +13°C° 2.5 mm 2 mps 748 mmHg 94%
    03:00 +12°C° 2.5 mm 3 mps 747 mmHg 97%
    04:00 +12°C° 1 mm 3 mps 747 mmHg 97%
    05:00 +12°C° 1 mm 3 mps 746 mmHg 97%
    06:00 +13°C° 1 mm 2 mps 745 mmHg 97%
    07:00 +14°C° 0 mm 3 mps 745 mmHg 91%
    08:00 +15°C° 0 mm 4 mps 745 mmHg 86%
    09:00 +17°C° 0 mm 4 mps 745 mmHg 80%
    10:00 +18°C° 0 mm 4 mps 745 mmHg 77%
    11:00 +18°C° 0 mm 4 mps 745 mmHg 73%
    12:00 +19°C° 0 mm 3 mps 744 mmHg 69%
    13:00 +19°C° 0 mm 3 mps 744 mmHg 66%
    14:00 +20°C° 0 mm 2 mps 744 mmHg 62%
    15:00 +20°C° 0 mm 2 mps 744 mmHg 59%
    16:00 +20°C° 0 mm 2 mps 744 mmHg 63%
    17:00 +19°C° 0 mm 2 mps 743 mmHg 68%
    18:00 +19°C° 0 mm 3 mps 743 mmHg 73%
    19:00 +18°C° 0 mm 4 mps 743 mmHg 76%
    20:00 +16°C° 0 mm 5 mps 742 mmHg 79%
    21:00 +14°C° 0 mm 5 mps 742 mmHg 82%
    22:00 +14°C° 0 mm 6 mps 741 mmHg 81%
    23:00 +14°C° 0 mm 6 mps 741 mmHg 80%

    Day after tomorrow, 28 June, Friday

    Time Temperature Precipitation Wind Pressure Humidity
    00:00 +12°C° 0 mm 7 mps 740 mmHg 78%
    01:00 +11°C° 1.1 mm 7 mps 739 mmHg 83%
    02:00 +11°C° 1.1 mm 8 mps 739 mmHg 89%
    03:00 +10°C° 1.1 mm 8 mps 738 mmHg 94%
    04:00 +10°C° 3.5 mm 9 mps 737 mmHg 94%
    05:00 +10°C° 3.5 mm 9 mps 736 mmHg 95%
    06:00 +9°C° 3.5 mm 10 mps 735 mmHg 96%
    07:00 +11°C° 1.9 mm 10 mps 735 mmHg 96%
    08:00 +11°C° 1.9 mm 9 mps 734 mmHg 96%
    09:00 +12°C° 1.9 mm 9 mps 734 mmHg 96%
    10:00 +13°C° 0.3 mm 8 mps 734 mmHg 95%
    11:00 +15°C° 0.3 mm 8 mps 733 mmHg 95%
    12:00 +16°C° 0.3 mm 7 mps 733 mmHg 94%
    13:00 +17°C° 0.2 mm 7 mps 733 mmHg 93%
    14:00 +17°C° 0.2 mm 7 mps 733 mmHg 93%
    15:00 +18°C° 0.2 mm 7 mps 733 mmHg 92%
    16:00 +18°C° 0.1 mm 7 mps 733 mmHg 91%
    17:00 +20°C° 0.1 mm 6 mps 733 mmHg 90%
    18:00 +20°C° 0.1 mm 6 mps 733 mmHg 90%
    19:00 +19°C° 0.2 mm 5 mps 733 mmHg 91%
    20:00 +18°C° 0.2 mm 4 mps 733 mmHg 93%
    21:00 +17°C° 0.2 mm 3 mps 733 mmHg 94%
    22:00 +16°C° 0 mm 3 mps 733 mmHg 94%
    23:00 +14°C° 0 mm 3 mps 733 mmHg 95%

    29 June, Saturday

    Time Temperature Precipitation Wind Pressure Humidity
    00:00 +13°C° 0 mm 3 mps 734 mmHg 95%
    01:00 +13°C° 0 mm 3 mps 734 mmHg 95%
    02:00 +12°C° 0 mm 3 mps 734 mmHg 95%
    03:00 +12°C° 0 mm 3 mps 734 mmHg 96%
    04:00 +12°C° 0 mm 4 mps 734 mmHg 94%
    05:00 +13°C° 0 mm 5 mps 734 mmHg 93%
    06:00 +13°C° 0 mm 6 mps 734 mmHg 92%
    07:00 +12°C° 0 mm 7 mps 734 mmHg 88%
    08:00 +14°C° 0 mm 7 mps 735 mmHg 85%
    09:00 +13°C° 0 mm 8 mps 735 mmHg 81%
    10:00 +14°C° 0 mm 7 mps 736 mmHg 80%
    11:00 +15°C° 0 mm 7 mps 736 mmHg 78%
    12:00 +15°C° 0 mm 7 mps 737 mmHg 77%
    13:00 +15°C° 0 mm 7 mps 737 mmHg 76%
    14:00 +15°C° 0 mm 6 mps 737 mmHg 75%
    15:00 +16°C° 0 mm 6 mps 738 mmHg 74%
    16:00 +16°C° 0.1 mm 6 mps 738 mmHg 75%
    17:00 +16°C° 0.1 mm 5 mps 738 mmHg 77%
    18:00 +18°C° 0.1 mm 4 mps 739 mmHg 78%
    19:00 +15°C° 0 mm 4 mps 739 mmHg 82%
    20:00 +14°C° 0 mm 3 mps 739 mmHg 87%
    21:00 +13°C° 0 mm 2 mps 740 mmHg 92%
    22:00 +13°C° 0 mm 2 mps 740 mmHg 92%
    23:00 +12°C° 0 mm 2 mps 740 mmHg 93%

    30 June, Sunday

    Time Temperature Precipitation Wind Pressure Humidity
    00:00 +10°C° 0 mm 2 mps 740 mmHg 94%
    01:00 +10°C° 0 mm 2 mps 741 mmHg 95%
    02:00 +9°C° 0 mm 2 mps 741 mmHg 95%
    03:00 +9°C° 0 mm 2 mps 741 mmHg 96%
    04:00 +10°C° 0 mm 2 mps 742 mmHg 94%
    05:00 +10°C° 0 mm 2 mps 742 mmHg 93%
    06:00 +12°C° 0 mm 2 mps 742 mmHg 91%
    07:00 +14°C° 0 mm 2 mps 742 mmHg 85%
    08:00 +15°C° 0 mm 2 mps 742 mmHg 78%
    09:00 +16°C° 0 mm 2 mps 742 mmHg 72%
    10:00 +17°C° 0 mm 3 mps 743 mmHg 69%
    11:00 +17°C° 0 mm 3 mps 743 mmHg 67%
    12:00 +18°C° 0 mm 3 mps 743 mmHg 65%
    13:00 +18°C° 0.1 mm 3 mps 744 mmHg 65%
    14:00 +19°C° 0.1 mm 3 mps 744 mmHg 64%
    15:00 +19°C° 0.1 mm 3 mps 744 mmHg 64%
    16:00 +18°C° 0 mm 3 mps 744 mmHg 67%
    17:00 +18°C° 0 mm 3 mps 745 mmHg 69%
    18:00 +17°C° 0 mm 3 mps 745 mmHg 72%
    19:00 +16°C° 0 mm 2 mps 745 mmHg 78%
    20:00 +14°C° 0 mm 2 mps 746 mmHg 83%
    21:00 +12°C° 0 mm 2 mps 746 mmHg 89%
    22:00 +12°C° 0 mm 2 mps 746 mmHg 89%
    23:00 +11°C° 0 mm 1 mps 746 mmHg 89%

    1 July, Monday

    Time Temperature Precipitation Wind Pressure Humidity
    00:00 +11°C° 0 mm 1 mps 747 mmHg 90%
    01:00 +11°C° 0 mm 1 mps 747 mmHg 90%
    02:00 +11°C° 0 mm 1 mps 747 mmHg 91%
    03:00 +10°C° 0 mm 1 mps 747 mmHg 92%
    04:00 +11°C° 0 mm 1 mps 747 mmHg 90%
    05:00 +12°C° 0 mm 2 mps 747 mmHg 88%
    06:00 +13°C° 0 mm 2 mps 747 mmHg 86%
    07:00 +14°C° 0 mm 2 mps 747 mmHg 82%
    08:00 +16°C° 0 mm 3 mps 747 mmHg 77%
    09:00 +18°C° 0 mm 3 mps 747 mmHg 72%
    10:00 +19°C° 0 mm 3 mps 747 mmHg 71%
    11:00 +19°C° 0 mm 3 mps 747 mmHg 69%
    12:00 +20°C° 0 mm 4 mps 747 mmHg 67%
    13:00 +20°C° 0.1 mm 4 mps 746 mmHg 71%
    14:00 +19°C° 0.1 mm 4 mps 746 mmHg 75%
    15:00 +19°C° 0.1 mm 4 mps 746 mmHg 79%
    16:00 +18°C° 0.4 mm 4 mps 745 mmHg 82%
    17:00 +18°C° 0.4 mm 4 mps 745 mmHg 85%
    18:00 +17°C° 0.4 mm 4 mps 745 mmHg 88%
    19:00 +17°C° 1.1 mm 4 mps 745 mmHg 91%
    20:00 +15°C° 1.1 mm 4 mps 745 mmHg 94%
    21:00 +15°C° 1.1 mm 4 mps 745 mmHg 96%
    22:00 +15°C° 0.4 mm 4 mps 744 mmHg 97%
    23:00 +16°C° 0.4 mm 3 mps 744 mmHg 98%
    Show more